TimeEDT,TemperatureF,Dew PointF,Humidity,Sea Level PressureIn,VisibilityMPH,Wind Direction,Wind SpeedMPH,Gust SpeedMPH,PrecipitationIn,Events,Conditions,WindDirDegrees,DateUTC
12:23 AM,73.4,69.8,88,30.04,10.0,SSW,5.8,-,0.00,Rain,Light Rain,210,2013-07-21 04:23:00
12:53 AM,73.9,70.0,87,30.04,10.0,SSW,5.8,-,0.00,,Overcast,200,2013-07-21 04:53:00
1:53 AM,75.0,71.1,87,30.03,10.0,SSW,6.9,-,N/A,,Overcast,200,2013-07-21 05:53:00
2:53 AM,73.9,71.1,91,30.01,3.0,SW,8.1,-,0.03,Rain,Rain,220,2013-07-21 06:53:00
3:00 AM,73.4,71.6,94,30.02,4.0,SW,8.1,-,0.01,Rain,Light Rain,220,2013-07-21 07:00:00
3:33 AM,73.4,71.6,94,30.01,10.0,SW,8.1,-,0.01,,Overcast,230,2013-07-21 07:33:00
3:45 AM,73.4,71.6,94,30.01,10.0,SW,6.9,-,0.01,,Overcast,230,2013-07-21 07:45:00
3:53 AM,73.9,71.1,91,30.01,10.0,SW,8.1,-,0.01,,Overcast,220,2013-07-21 07:53:00
4:04 AM,73.4,71.6,94,30.01,10.0,SW,5.8,-,N/A,,Overcast,230,2013-07-21 08:04:00
4:53 AM,73.9,71.1,91,30.00,10.0,SW,5.8,-,N/A,,Overcast,220,2013-07-21 08:53:00
5:29 AM,73.4,71.6,94,30.00,10.0,SW,5.8,-,N/A,,Overcast,230,2013-07-21 09:29:00
5:53 AM,75.0,71.1,87,29.99,10.0,WSW,5.8,-,N/A,,Overcast,240,2013-07-21 09:53:00
6:53 AM,75.0,71.1,87,30.01,10.0,SW,6.9,-,N/A,,Overcast,230,2013-07-21 10:53:00
7:53 AM,75.0,71.1,87,30.02,10.0,WSW,5.8,-,N/A,,Overcast,240,2013-07-21 11:53:00
8:53 AM,75.9,71.1,85,30.04,10.0,WSW,6.9,-,N/A,,Overcast,250,2013-07-21 12:53:00
9:53 AM,77.0,71.1,82,30.04,10.0,SW,6.9,-,N/A,,Overcast,220,2013-07-21 13:53:00
10:53 AM,78.1,72.0,81,30.05,10.0,Variable,6.9,-,N/A,,Overcast,0,2013-07-21 14:53:00
11:53 AM,79.0,72.0,79,30.05,10.0,SW,9.2,-,N/A,,Overcast,220,2013-07-21 15:53:00
12:53 PM,81.0,72.0,74,30.04,10.0,SW,9.2,-,0.00,,Mostly Cloudy,220,2013-07-21 16:53:00
1:12 PM,80.6,71.6,74,30.03,10.0,SSW,8.1,-,N/A,,Mostly Cloudy,200,2013-07-21 17:12:00
1:53 PM,82.9,72.0,69,30.01,10.0,SW,6.9,-,N/A,,Scattered Clouds,220,2013-07-21 17:53:00
2:53 PM,84.9,72.0,65,29.99,10.0,WSW,5.8,-,N/A,,Mostly Cloudy,250,2013-07-21 18:53:00
3:53 PM,86.0,72.0,63,29.96,10.0,South,6.9,-,N/A,,Scattered Clouds,190,2013-07-21 19:53:00
4:53 PM,86.0,72.0,63,29.95,10.0,SSW,8.1,-,N/A,,Scattered Clouds,210,2013-07-21 20:53:00
5:53 PM,86.0,72.0,63,29.95,10.0,SSW,6.9,-,N/A,,Clear,210,2013-07-21 21:53:00
6:53 PM,82.9,72.0,69,29.95,10.0,SSW,17.3,20.7,N/A,,Clear,210,2013-07-21 22:53:00
7:53 PM,81.0,72.0,74,29.97,10.0,SSW,6.9,-,N/A,,Overcast,210,2013-07-21 23:53:00
8:51 PM,78.8,71.6,78,29.99,10.0,SW,6.9,-,N/A,,Partly Cloudy,220,2013-07-22 00:51:00
8:53 PM,78.1,72.0,81,29.99,10.0,SW,8.1,-,N/A,,Partly Cloudy,220,2013-07-22 00:53:00
9:53 PM,77.0,72.0,84,30.00,10.0,SSW,3.5,-,N/A,,Clear,210,2013-07-22 01:53:00
10:53 PM,77.0,72.0,84,30.01,10.0,Calm,Calm,-,N/A,,Partly Cloudy,0,2013-07-22 02:53:00
11:53 PM,75.0,72.0,90,30.01,10.0,SSW,4.6,-,N/A,,Clear,210,2013-07-22 03:53:00